RH
19 14 20 19 21 18 14 14 14 13 13 14 12 8 19 55 38 79 86 80 77 10 6 8 14 18 18 16 16 18 18 20 25 33 31 30 26 26 27 36 31 31 30
19 14 20 17 19 17 15 15 14 15 15 15 13 10 14 32 58 88 88 79 19 7 10 19 19 16 16 18 20 21 22 24 25 24 22 20 21 21 21 27 38 21 20
18 16 18 18 18 16 16 15 16 16 16 14 13 16 30 60 83 90 83 18 7 13 19 18 16 18 19 22 25 26 25 23 19 18 19 18 17 18 20 36 22 19 20
18 18 19 18 17 16 16 17 17 16 15 18 33 47 59 70 86 84 23 8 15 19 17 18 19 22 25 26 25 21 19 19 19 20 20 21 21 23 23 23 23 24 23
19 22 21 19 17 17 17 18 17 17 18 21 54 44 30 38 44 11 9 18 19 17 19 21 24 25 22 20 20 20 20 21 21 22 23 23 23 23 24 24 24 26 25
23 26 22 19 18 18 18 18 18 19 19 19 17 14 12 10 9 12 19 18 18 21 24 25 21 19 20 20 21 21 23 27 30 31 33 33 33 33 33 33 31 31 30
29 26 21 19 19 19 18 20 20 19 19 18 15 13 12 13 17 19 18 20 23 23 20 19 18 19 22 28 32 31 30 30 31 31 29 28 28 28 28 30 32 32 33
31 24 20 20 20 20 20 21 20 19 19 18 17 17 18 19 18 18 21 22 20 18 17 19 26 30 32 33 36 36 38 35 33 33 30 27 25 26 27 27 28 28 28
27 22 21 21 20 21 22 22 21 20 19 18 18 18 18 18 20 22 20 17 16 18 28 32 30 31 34 36 38 38 36 36 32 27 26 26 27 29 28 29 28 27 29
25 23 22 21 21 22 23 23 22 20 19 17 18 17 18 21 22 19 17 17 26 30 33 39 44 46 45 44 42 37 31 31 30 28 28 30 31 36 38 39 38 38 39
26 24 23 22 23 23 24 23 21 20 18 18 18 18 19 19 18 17 20 27 33 40 45 48 52 54 53 50 48 40 30 27 26 28 30 35 36 37 38 35 34 30 28
26 25 25 24 25 24 24 21 20 18 17 18 17 18 17 16 17 22 30 38 42 46 48 49 49 51 53 54 51 48 35 29 28 27 29 34 38 39 36 32 26 22 21
32 27 28 27 27 25 23 20 18 18 16 18 17 16 16 15 23 31 38 43 46 49 50 50 50 50 50 51 53 54 46 31 29 30 30 34 39 44 45 44 44 34 34
51 38 43 30 28 25 23 19 17 16 16 16 15 15 17 22 31 37 42 46 48 49 49 49 49 48 47 47 49 52 53 41 29 28 32 37 41 45 49 51 54 48 47
64 48 49 41 30 25 23 19 17 17 16 16 16 18 24 32 37 41 45 47 49 50 50 49 48 48 48 47 46 47 51 48 35 31 34 38 43 49 57 60 60 59 56
72 71 52 49 42 26 20 18 18 17 17 17 21 28 34 40 44 47 49 50 50 50 49 49 48 48 48 47 46 46 45 46 38 34 36 41 46 53 60 67 64 71 64
70 72 46 66 43 30 20 20 19 18 19 24 31 37 41 44 46 48 49 50 49 49 49 48 48 47 48 48 45 45 45 46 44 38 38 43 49 55 62 69 65 65 67
73 72 67 42 36 37 24 19 20 21 23 30 37 42 44 46 48 49 49 50 49 49 48 48 48 47 47 48 49 45 45 46 49 42 42 44 51 58 66 73 74 68 62
74 68 56 47 40 33 23 22 22 24 26 33 40 44 47 48 49 49 49 49 49 48 48 47 47 47 47 48 49 50 46 47 49 50 47 49 53 62 64 68 76 76 69
67 71 74 65 48 41 27 25 27 27 30 34 40 45 47 48 49 48 48 48 48 48 47 46 46 46 47 49 52 53 50 50 59 58 52 54 58 66 68 66 65 65 63
98 90 79 75 67 57 36 29 26 29 32 36 39 42 45 46 46 46 46 46 46 45 44 45 46 46 49 55 60 61 58 58 59 68 60 58 61 69 73 72 65 71 67
97 99 94 93 76 45 57 50 38 32 35 37 39 41 41 42 43 44 50 55 55 48 51 58 62 60 58 62 63 89 96 84 72 75 71 70 72 78 78 82 96 97 61
82 91 88 94 92 73 86 74 61 59 58 49 52 53 75 69 69 67 62 60 55 57 64 74 81 81 76 76 97 98 97 99 97 96 92 94 87 87 96 94 94 81 92
86 82 96 87 95 87 90 88 92 97 82 82 88 82 85 86 79 78 76 75 74 80 81 85 92 94 97 95 96 100 98 99 99 99 99 100 100 97 97 99 100 98 99
83 93 94 87 89 99 99 96 86 84 86 96 94 84 81 81 77 73 76 80 90 97 99 99 96 91 78 87 86 83 80 89 100 99 100 100 99 99 99 100 99 100 100
93 99 89 96 94 87 91 99 99 99 98 98 90 87 81 76 76 84 92 88 84 90 73 81 90 77 82 77 77 94 100 97 99 99 99 99 100 100 100 100 99 99 90
Wind_Speed
22 20 18 17 17 14 12 10 9 8 8 7 7 10 14 15 12 11 9 8 6 5 10 12 13 12 13 14 15 16 16 15 15 15 14 15 15 15 14 13 12 11 11
20 20 18 18 17 16 14 12 11 10 9 8 8 11 15 15 13 11 10 8 5 10 12 12 11 13 14 15 16 15 15 14 14 14 14 13 14 14 13 13 12 12 11
22 21 20 18 17 16 15 13 12 10 9 10 11 12 13 14 13 13 10 6 11 12 11 11 13 14 14 15 15 14 12 12 13 15 15 14 15 14 14 13 12 12 12
23 21 19 17 17 16 15 14 12 11 11 11 12 14 14 15 15 11 8 12 13 11 12 13 14 14 13 13 14 13 13 14 15 16 16 16 16 16 15 15 14 13 13
24 20 19 18 17 17 15 13 12 12 12 12 14 14 13 13 13 12 14 14 12 13 13 13 13 12 13 14 15 14 14 16 17 17 18 17 16 16 15 15 14 13 13
26 22 20 18 18 16 15 14 13 12 13 13 13 13 13 14 15 16 15 14 15 14 13 13 12 13 15 16 17 16 16 17 17 16 15 15 15 14 14 13 12 12 12
28 24 21 19 19 18 16 15 14 14 14 14 15 15 15 16 16 16 16 16 15 14 13 15 15 16 18 18 17 16 16 16 16 15 14 14 13 13 12 11 11 11 11
29 26 24 21 20 18 17 16 15 15 16 16 17 17 17 17 17 17 16 15 15 16 16 18 18 18 17 16 16 15 15 14 14 13 13 14 13 12 11 11 11 11 11
31 27 25 23 22 20 18 17 17 17 17 18 18 18 18 18 17 17 16 16 18 19 19 18 17 17 16 15 14 13 13 12 12 12 12 13 13 13 12 12 12 12 12
33 29 26 25 23 21 20 19 19 19 19 19 19 18 18 18 18 18 19 20 22 20 20 20 18 17 16 15 14 12 11 11 10 10 11 12 13 13 12 13 13 13 13
35 31 28 26 24 22 22 21 21 21 20 20 20 19 19 19 19 20 22 22 22 21 20 18 17 15 13 12 12 11 10 9 9 9 10 10 11 12 13 14 14 15 14
36 34 30 27 25 25 23 23 22 22 21 21 21 21 20 20 21 22 23 22 20 19 17 15 14 12 10 9 9 9 9 7 8 9 9 9 10 12 13 14 15 16 16
34 32 31 29 27 26 25 24 24 24 23 23 22 22 22 23 23 23 22 21 18 16 13 11 10 9 8 7 6 7 8 8 7 7 8 9 10 11 12 14 15 17 18
30 33 30 29 28 26 25 25 25 25 24 24 23 23 24 24 23 22 21 18 15 13 10 8 6 6 6 6 5 6 7 8 7 7 7 8 10 11 13 14 16 17 18
30 39 31 29 28 27 27 28 27 26 25 25 25 26 26 25 23 21 19 16 13 9 6 4 3 3 4 4 5 5 6 8 7 7 8 9 10 11 13 15 16 17 18
31 40 38 30 27 29 30 30 29 28 27 28 28 27 27 25 22 19 16 12 9 6 3 1 2 4 6 7 7 7 7 8 8 8 8 9 10 11 13 15 17 17 18
31 35 33 32 30 31 31 32 31 30 30 30 29 28 26 24 21 18 15 11 8 5 4 5 6 7 8 10 11 12 11 11 11 10 10 10 10 10 11 13 15 16 18
33 39 42 30 28 29 33 34 34 33 32 32 30 29 27 24 20 17 14 11 10 8 9 10 10 11 12 13 14 15 16 15 15 14 13 13 13 13 13 13 14 14 16
40 47 46 35 31 30 35 35 36 35 35 33 32 29 27 23 20 18 16 15 14 13 14 15 15 17 17 17 18 18 19 20 19 17 17 16 15 15 17 16 16 17 17
43 39 36 40 41 42 36 34 35 36 35 34 32 29 26 24 22 20 18 18 18 19 20 20 21 22 22 22 21 22 21 21 22 21 20 19 18 17 18 19 18 19 17
42 40 40 48 42 41 36 36 35 35 35 34 32 29 28 25 22 21 21 22 23 24 25 26 27 27 27 25 23 18 21 23 27 24 23 23 21 20 19 19 21 20 22
37 39 37 47 39 44 41 40 39 35 33 32 30 27 24 23 22 22 23 23 25 26 26 27 28 29 30 28 23 24 31 29 28 28 25 24 23 23 21 20 20 21 21
39 32 40 42 46 40 41 37 32 30 28 28 26 26 22 23 22 27 25 24 25 27 25 23 24 25 28 23 32 35 28 28 32 35 31 33 32 29 27 25 26 24 20
39 44 39 39 41 38 45 42 38 29 35 29 22 23 28 21 22 25 22 21 19 19 20 20 19 20 18 31 36 29 35 34 27 31 32 34 37 39 40 40 40 24 22
29 45 43 33 33 31 28 26 26 24 35 38 25 30 34 25 27 23 20 21 19 17 15 22 21 22 28 20 18 26 26 30 31 30 31 31 34 37 33 36 33 30 21
28 26 37 33 39 24 23 26 23 24 23 21 18 21 20 21 22 18 20 19 32 26 23 21 21 23 23 23 24 22 18 18 17 21 29 28 30 31 29 27 21 13 17
Wind_Direction
204 200 195 178 174 171 168 171 168 172 162 157 163 163 168 170 165 155 148 128 112 67 94 96 95 93 91 92 91 89 89 86 81 76 76 78 75 72 69 70 66 63 60
209 197 189 182 174 173 172 176 172 176 171 169 175 165 165 165 162 154 143 131 99 105 101 98 96 96 95 93 89 87 83 79 77 76 71 73 75 71 71 68 61 57 56
200 198 187 183 175 177 175 177 177 177 178 171 171 166 168 163 156 149 139 123 119 114 109 104 103 99 99 95 91 84 80 79 78 76 73 72 72 71 68 66 59 56 55
195 195 181 183 179 180 178 178 177 176 172 167 160 152 154 155 153 149 136 127 123 116 113 112 106 103 100 97 91 86 85 84 82 80 78 73 72 72 69 66 61 57 55
189 193 184 183 179 179 179 179 176 173 166 160 153 155 152 151 150 140 132 128 123 121 118 111 106 105 101 94 88 85 84 81 78 75 71 70 69 67 65 64 59 55 52
187 190 185 183 178 177 179 176 171 170 165 161 158 155 149 144 139 134 133 130 126 122 116 109 105 103 98 94 90 87 84 80 75 72 71 69 66 65 62 59 58 53 50
190 188 183 183 177 176 175 174 170 166 162 159 156 151 147 143 139 136 133 130 126 121 116 112 107 104 98 93 88 82 77 72 70 66 63 60 58 56 53 50 46 42 39
193 186 181 181 178 177 174 172 170 165 159 156 154 152 149 144 140 136 133 130 125 121 117 110 106 100 94 88 83 77 72 67 63 61 59 56 52 50 48 43 39 32 29
188 187 181 181 178 176 174 172 169 165 160 157 155 152 147 142 139 137 133 129 124 119 112 105 99 92 87 82 79 75 71 68 63 60 58 55 48 46 45 41 34 28 25
184 186 184 181 179 177 174 173 170 165 161 159 154 149 147 144 143 138 133 130 123 117 109 102 92 84 78 73 68 66 65 63 59 57 57 53 46 44 42 36 30 27 23
185 184 186 183 179 178 177 173 170 166 163 159 154 150 148 146 142 137 132 127 120 112 105 98 92 85 75 65 59 54 52 57 54 51 51 46 39 35 32 27 21 18 12
189 183 186 184 181 179 178 174 171 168 163 160 155 151 149 146 141 136 130 122 114 106 100 94 89 83 75 64 51 44 43 42 41 41 38 35 29 25 23 18 14 11 4
188 188 189 186 183 183 180 174 170 168 164 160 157 153 150 145 141 135 128 121 115 111 104 94 82 73 65 55 40 27 20 23 22 21 24 20 19 14 11 9 8 7 5
197 192 192 188 188 183 180 175 171 168 165 161 158 154 149 145 141 137 131 128 126 122 114 102 85 67 49 35 18 6 359 359 2 360 2 2 1 2 357 357 358 358 360
214 201 192 195 191 185 180 177 174 168 165 162 158 154 151 148 146 143 140 139 138 135 125 108 68 25 11 1 352 341 334 333 336 339 343 345 345 346 347 348 348 350 353
209 204 186 198 200 190 184 178 175 168 167 162 160 158 156 156 157 157 156 154 155 156 164 231 328 330 328 323 318 311 305 301 301 303 312 322 330 335 335 339 342 341 342
191 181 191 186 199 196 187 180 178 173 169 167 165 165 166 166 168 171 174 179 187 203 236 267 288 299 305 307 304 299 293 287 284 282 288 298 307 314 319 325 332 333 332
192 189 186 196 201 201 194 185 180 178 174 174 173 176 177 179 182 187 194 207 221 239 258 270 279 285 289 291 293 291 288 284 281 281 284 290 297 305 310 315 317 320 321
194 182 183 206 193 203 200 195 186 185 182 182 184 186 188 193 198 206 215 229 243 254 263 271 277 282 283 284 285 284 278 276 276 274 273 278 288 296 303 308 309 311 316
192 199 204 187 185 199 199 201 198 191 189 189 193 195 199 206 213 221 231 243 253 262 269 273 277 280 283 283 281 281 277 270 271 270 269 274 280 288 296 304 304 305 309
204 205 200 202 209 206 202 201 205 199 195 196 198 203 208 215 224 233 241 251 261 268 272 277 280 280 277 276 276 287 293 282 278 273 272 272 275 279 288 297 296 296 309
205 211 215 193 208 206 202 199 207 206 203 202 204 208 218 227 235 244 257 265 268 270 274 279 281 280 277 273 271 290 302 269 266 276 271 272 279 284 288 293 298 288 302
203 214 202 214 192 203 211 206 204 201 207 210 208 211 225 235 235 252 256 263 264 267 270 275 285 282 279 276 294 288 302 271 261 262 262 270 270 274 268 274 283 293 293
211 216 225 215 208 196 208 208 210 195 210 210 212 220 222 245 246 253 258 263 264 262 266 272 273 276 273 310 303 287 292 288 284 279 279 272 270 261 271 280 274 272 275
198 211 223 218 230 216 200 220 220 224 220 224 241 234 241 242 241 254 270 273 269 266 266 288 306 296 304 302 284 292 288 288 278 280 270 273 285 280 279 278 265 257 278
193 201 214 219 220 216 224 216 211 221 230 218 215 219 225 236 254 268 273 264 289 295 291 292 291 293 288 294 295 291 281 280 284 286 283 289 284 282 288 276 263 282 294